FW8282 Weather Reports


Display with metric or nautical units.
time (UTC)temp
F
wind
direction
speed
MPH
gust
MPH
rain 1hr
in
rain 24hr
in
rain mn
in
humidity
%
barometer
mb
20260508090746 69 160 0.0 0.0 0.00 0.00 0.00 97 1012.6
20260508090243 69 160 0.0 0.0 0.00 0.00 0.00 97 1012.5
20260508085739 70 157 0.0 0.0 0.00 0.00 0.00 97 1012.4
20260508085236 70 160 0.0 0.0 0.00 0.00 0.00 97 1012.4
20260508084732 70 155 0.0 0.0 0.00 0.00 0.00 97 1012.3
20260508084230 70 155 0.0 0.0 0.00 0.00 0.00 97 1012.3
20260508083727 70 161 0.0 0.0 0.00 0.00 0.00 97 1012.3
20260508083225 70 151 0.0 0.0 0.00 0.00 0.00 97 1012.5
20260508082719 70 150 0.0 0.0 0.00 0.00 0.00 97 1012.5
20260508082218 70 161 0.0 0.0 0.00 0.00 0.00 97 1012.4
20260508081715 70 162 0.0 0.0 0.00 0.00 0.00 97 1012.6
20260508081211 70 151 0.0 0.0 0.00 0.00 0.00 97 1012.1
20260508080708 70 150 0.0 0.0 0.00 0.00 0.00 97 1012.5
20260508080206 71 151 0.0 0.0 0.00 0.00 0.00 97 1012.3
20260508075702 71 143 0.0 0.0 0.00 0.00 0.00 97 1012.5
20260508075200 71 145 0.0 0.0 0.00 0.00 0.00 97 1012.3
20260508074657 71 156 0.0 0.0 0.00 0.00 0.00 97 1012.6
20260508074154 71 155 0.0 0.0 0.00 0.00 0.00 97 1012.6
20260508073651 71 156 0.0 0.0 0.00 0.00 0.00 97 1012.4
20260508073149 71 158 0.0 0.0 0.00 0.00 0.00 97 1012.6
20260508072644 71 158 0.0 0.0 0.00 0.00 0.00 97 1012.4
20260508072142 71 158 0.0 0.0 0.00 0.00 0.00 97 1012.5
20260508071639 71 162 0.0 0.0 0.00 0.00 0.00 97 1012.7
20260508071137 71 162 0.0 0.0 0.00 0.00 0.00 96 1012.7
20260508070635 71 152 0.0 0.0 0.00 0.00 0.00 96 1012.8
20260508070133 71 158 0.0 0.0 0.00 0.00 0.00 96 1013.0
20260508065630 71 162 0.0 0.0 0.00 0.00 0.00 96 1012.9
20260508065128 72 162 0.0 0.0 0.00 0.00 0.00 96 1012.9
20260508064625 72 151 0.0 0.0 0.00 0.00 0.00 96 1012.8
20260508064123 72 151 0.0 0.0 0.00 0.00 0.00 96 1012.8
20260508063620 71 158 0.0 0.0 0.00 0.00 0.00 96 1013.0
20260508062616 71 166 0.0 0.0 0.00 0.00 0.00 96 1012.9
20260508062112 71 156 0.0 0.0 0.00 0.00 0.00 96 1013.1
20260508061609 72 156 0.0 0.0 0.00 0.00 0.00 96 1013.1
20260508061107 72 159 0.0 0.0 0.00 0.00 0.00 96 1013.2
20260508060603 71 152 0.0 0.0 0.00 0.00 0.00 96 1013.1
20260508060101 72 153 0.0 0.0 0.00 0.00 0.00 96 1013.2
20260508055556 72 149 0.0 0.0 0.00 0.00 0.00 95 1013.4
20260508055053 72 162 0.0 0.0 0.00 0.00 0.00 95 1013.3
20260508054549 71 155 0.0 0.0 0.00 0.00 0.00 95 1013.2
20260508054047 71 153 0.0 0.0 0.00 0.00 0.00 95 1013.4
20260508053543 71 153 0.0 0.0 0.00 0.00 0.00 95 1013.3
20260508053042 72 153 0.0 0.0 0.00 0.00 0.00 95 1013.2
20260508052539 72 153 0.0 0.0 0.00 0.00 0.00 95 1013.3
20260508052036 72 152 0.0 0.0 0.00 0.00 0.00 95 1013.5
20260508051532 72 152 0.0 0.0 0.00 0.00 0.00 95 1013.3
20260508051027 73 153 0.0 0.0 0.00 0.00 0.00 95 1013.4
20260508050524 73 160 0.0 0.0 0.00 0.00 0.00 95 1013.5
20260508050021 73 136 0.0 0.0 0.00 0.00 0.00 95 1013.5
20260508045517 73 205 0.0 0.0 0.00 0.00 0.00 95 1013.6
20260508045015 73 141 0.0 0.0 0.00 0.00 0.00 94 1013.7
20260508044512 72 142 0.0 0.0 0.00 0.00 0.00 94 1013.6
20260508044008 72 151 0.0 0.0 0.00 0.00 0.00 94 1013.6
20260508043505 71 149 0.0 0.0 0.00 0.00 0.00 94 1013.5
20260508043001 72 150 0.0 0.0 0.00 0.00 0.00 94 1013.7
20260508042459 73 149 0.0 0.0 0.00 0.00 0.00 93 1013.6
20260508041956 72 152 0.0 0.0 0.00 0.00 0.00 94 1013.5
20260508041452 72 146 0.0 0.0 0.00 0.00 0.00 93 1013.6
20260508040949 73 154 0.0 0.0 0.00 0.00 0.00 93 1013.7
20260508040446 72 151 0.0 0.0 0.00 0.00 0.00 93 1013.8
20260508035944 72 150 0.0 0.0 0.00 0.00 0.00 93 1013.6
20260508035440 72 149 0.0 0.0 0.00 0.00 0.00 92 1013.8
20260508034937 72 149 0.0 0.0 0.00 0.00 0.00 92 1013.8
20260508034435 73 148 0.0 0.0 0.00 0.00 0.00 92 1013.9
20260508033931 73 146 0.0 0.0 0.00 0.00 0.00 92 1013.9
20260508033430 73 147 0.0 0.0 0.00 0.00 0.00 92 1013.7
20260508032926 74 138 0.0 0.0 0.00 0.00 0.00 92 1013.8
20260508032424 73 190 0.0 0.0 0.00 0.00 0.00 92 1013.6
20260508031920 72 149 0.0 0.0 0.00 0.00 0.00 92 1013.6
20260508031418 72 149 0.0 0.0 0.00 0.00 0.00 91 1013.7
20260508030913 73 149 0.0 0.0 0.00 0.00 0.00 91 1013.7
20260508030411 73 144 0.0 0.0 0.00 0.00 0.00 91 1013.7
20260508025908 73 147 0.0 0.0 0.00 0.00 0.00 91 1013.5
20260508025404 74 146 0.0 0.0 0.00 0.00 0.00 90 1013.4
20260508024901 74 137 0.0 0.0 0.00 0.00 0.00 90 1013.4
20260508024358 74 116 0.0 0.0 0.00 0.00 0.00 90 1013.7
20260508023855 74 157 0.0 0.0 0.00 0.00 0.00 89 1013.5
20260508023352 75 157 0.0 0.0 0.00 0.00 0.00 89 1013.7
20260508022848 75 155 0.0 0.0 0.00 0.00 0.00 89 1013.6
20260508022344 75 144 0.0 0.0 0.00 0.00 0.00 88 1013.5
20260508021841 75 2 0.0 0.0 0.00 0.00 0.00 88 1013.6
20260508021337 75 180 0.0 0.0 0.00 0.00 0.00 88 1013.5
20260508020833 76 105 0.0 0.0 0.00 0.00 0.00 87 1013.4
20260508020332 76 222 0.0 0.0 0.00 0.00 0.00 87 1013.5
20260508015829 76 173 0.0 0.0 0.00 0.00 0.00 87 1013.5
20260508015326 76 176 0.0 0.0 0.00 0.00 0.00 86 1013.4
20260508014822 76 178 0.0 0.0 0.00 0.00 0.00 85 1013.5
20260508014320 77 310 0.0 0.0 0.00 0.00 0.00 85 1013.5
20260508013815 77 235 0.0 0.0 0.00 0.00 0.00 84 1013.4
20260508013311 77 261 0.0 0.0 0.00 0.00 0.00 84 1013.5
20260508012809 77 227 0.0 0.0 0.00 0.00 0.00 83 1013.5
20260508012307 77 173 0.0 0.0 0.00 0.00 0.00 82 1013.2
20260508011804 78 277 0.0 0.0 0.00 0.00 0.00 82 1013.3
20260508011301 78 316 0.0 0.0 0.00 0.00 0.00 81 1013.1
20260508010758 78 206 0.0 0.0 0.00 0.00 0.00 80 1013.3
20260508010256 78 218 0.0 0.0 0.00 0.00 0.00 79 1013.3
20260508005753 78 180 2.0 2.0 0.00 0.00 0.00 78 1013.2
20260508005249 78 298 3.0 3.0 0.00 0.00 0.00 78 1013.2
20260508004745 79 203 2.0 3.0 0.00 0.00 0.00 77 1013.2
20260508004242 79 316 1.0 2.0 0.00 0.00 0.00 76 1013.1
20260508003738 79 350 0.0 0.0 0.00 0.00 0.00 75 1013.1
20260508003236 79 253 0.0 0.0 0.00 0.00 0.00 74 1013.0
20260508002732 80 227 0.0 0.0 0.00 0.00 0.00 74 1012.9
20260508002230 80 283 0.0 0.0 0.00 0.00 0.00 73 1013.1
20260508001725 80 206 0.0 0.0 0.00 0.00 0.00 74 1013.1
20260508001221 80 22 0.0 0.0 0.00 0.00 0.00 72 1013.0
20260508000717 81 315 0.0 0.0 0.00 0.00 0.00 72 1012.9
20260508000215 81 209 0.0 0.0 0.00 0.00 0.00 71 1012.9
20260507235711 81 324 0.0 0.0 0.00 0.00 0.00 70 1013.1
20260507235208 82 311 0.0 0.0 0.00 0.00 0.00 69 1013.0
20260507234705 82 348 0.0 0.0 0.00 0.00 0.00 68 1013.2
20260507234202 82 326 0.0 0.0 0.00 0.00 0.00 67 1013.1
20260507233658 83 351 3.0 5.0 0.00 0.00 0.00 65 1013.0
20260507233157 83 191 0.0 0.0 0.00 0.00 0.00 65 1013.2
20260507232653 83 284 5.0 9.0 0.00 0.00 0.00 63 1013.0
20260507232150 84 287 5.0 6.0 0.00 0.00 0.00 61 1012.9
20260507231647 84 255 0.0 0.0 0.00 0.00 0.00 62 1013.0
20260507231144 85 260 1.0 6.0 0.00 0.00 0.00 59 1013.1
20260507230641 85 238 0.0 0.0 0.00 0.00 0.00 58 1013.0
20260507230138 85 1 5.0 6.0 0.00 0.00 0.00 58 1013.2
20260507225637 85 269 0.0 1.0 0.00 0.00 0.00 58 1013.0
20260507225134 86 247 5.0 6.0 0.00 0.00 0.00 56 1012.8
20260507224629 86 282 0.0 1.0 0.00 0.00 0.00 55 1013.0
20260507224126 87 280 4.0 7.0 0.00 0.00 0.00 53 1012.8
20260507223623 88 111 0.0 0.0 0.00 0.00 0.00 50 1013.0
20260507223120 88 277 3.0 8.0 0.00 0.00 0.00 50 1012.8
20260507222617 87 250 3.0 6.0 0.00 0.00 0.00 49 1012.6
20260507222113 87 303 5.0 6.0 0.00 0.00 0.00 48 1012.6
20260507221609 88 324 1.0 2.0 0.00 0.00 0.00 47 1012.5
20260507221106 88 335 2.0 2.0 0.00 0.00 0.00 46 1012.8
20260507220603 88 262 0.0 1.0 0.00 0.00 0.00 44 1012.7
20260507220101 88 324 2.0 5.0 0.00 0.00 0.00 44 1012.6
20260507215556 89 291 1.0 3.0 0.00 0.00 0.00 42 1012.8
20260507215055 89 314 1.0 2.0 0.00 0.00 0.00 41 1012.7
20260507214551 90 35 2.0 3.0 0.00 0.00 0.00 39 1012.6
20260507214047 89 332 3.0 6.0 0.00 0.00 0.00 37 1012.7
20260507213544 89 309 3.0 5.0 0.00 0.00 0.00 37 1012.5
20260507213041 89 280 5.0 6.0 0.00 0.00 0.00 36 1012.7
20260507212537 89 257 1.0 2.0 0.00 0.00 0.00 36 1012.8
20260507212034 89 264 2.0 5.0 0.00 0.00 0.00 35 1012.7
20260507211531 89 304 4.0 6.0 0.00 0.00 0.00 35 1012.8
20260507211027 90 273 2.0 6.0 0.00 0.00 0.00 36 1012.8
20260507210524 90 282 7.0 10.0 0.00 0.00 0.00 35 1012.8
20260507210021 90 282 1.0 1.0 0.00 0.00 0.00 36 1012.8
20260507205518 90 254 3.0 7.0 0.00 0.00 0.00 36 1012.8
20260507205014 90 277 8.0 10.0 0.00 0.00 0.00 37 1012.7
20260507204510 90 300 2.0 3.0 0.00 0.00 0.00 38 1012.9
20260507204008 90 259 6.0 9.0 0.00 0.00 0.00 36 1013.0
20260507203506 90 304 1.0 3.0 0.00 0.00 0.00 37 1012.9
20260507203002 90 252 3.0 3.0 0.00 0.00 0.00 37 1012.8
20260507202458 91 338 1.0 3.0 0.00 0.00 0.00 34 1012.8
20260507201955 90 276 2.0 2.0 0.00 0.00 0.00 43 1013.0
20260507201450 91 264 6.0 9.0 0.00 0.00 0.00 39 1012.9
20260507200947 91 347 5.0 8.0 0.00 0.00 0.00 37 1013.1
20260507200442 91 209 1.0 1.0 0.00 0.00 0.00 38 1013.1
20260507195938 91 334 5.0 8.0 0.00 0.00 0.00 36 1013.0
20260507195436 91 301 1.0 2.0 0.00 0.00 0.00 31 1013.3
20260507194933 91 278 6.0 8.0 0.00 0.00 0.00 29 1013.4
20260507194430 91 244 3.0 5.0 0.00 0.00 0.00 32 1013.4
20260507193925 91 290 3.0 6.0 0.00 0.00 0.00 31 1013.5
20260507193423 91 258 3.0 6.0 0.00 0.00 0.00 32 1013.5
20260507192919 91 198 4.0 7.0 0.00 0.00 0.00 32 1013.3
20260507192415 90 272 5.0 6.0 0.00 0.00 0.00 44 1013.4
20260507191913 90 208 4.0 9.0 0.00 0.00 0.00 46 1013.6
20260507191409 90 268 3.0 3.0 0.00 0.00 0.00 48 1013.6
20260507190905 90 11 6.0 9.0 0.00 0.00 0.00 46 1013.7
20260507190403 90 299 4.0 7.0 0.00 0.00 0.00 45 1013.8
20260507185902 90 218 1.0 2.0 0.00 0.00 0.00 47 1013.9
20260507185359 90 269 0.0 2.0 0.00 0.00 0.00 44 1014.1
20260507184855 91 258 2.0 3.0 0.00 0.00 0.00 41 1014.0
20260507184354 90 225 1.0 2.0 0.00 0.00 0.00 43 1014.0
20260507183850 90 284 5.0 6.0 0.00 0.00 0.00 38 1014.2
20260507183347 91 257 3.0 6.0 0.00 0.00 0.00 40 1014.0
20260507182845 91 260 3.0 6.0 0.00 0.00 0.00 43 1014.2
20260507182340 90 264 3.0 6.0 0.00 0.00 0.00 44 1014.1
20260507181837 90 258 0.0 1.0 0.00 0.00 0.00 48 1014.3
20260507181333 90 258 5.0 8.0 0.00 0.00 0.00 45 1014.4
20260507180830 91 256 6.0 8.0 0.00 0.00 0.00 41 1014.4
20260507180327 90 213 0.0 0.0 0.00 0.00 0.00 43 1014.4
20260507175822 90 225 3.0 8.0 0.00 0.00 0.00 42 1014.5
20260507175320 90 227 5.0 6.0 0.00 0.00 0.00 47 1014.4
20260507174817 88 254 6.0 8.0 0.00 0.00 0.00 46 1014.5
20260507174315 89 252 4.0 6.0 0.00 0.00 0.00 46 1014.6
20260507173812 89 257 6.0 10.0 0.00 0.00 0.00 47 1014.6
20260507173309 89 312 4.0 6.0 0.00 0.00 0.00 48 1014.6
20260507172805 89 317 1.0 2.0 0.00 0.00 0.00 49 1014.7
20260507172306 89 223 0.0 0.0 0.00 0.00 0.00 47 1014.6
20260507171758 89 249 0.0 0.0 0.00 0.00 0.00 48 1014.5
20260507171255 90 202 0.0 1.0 0.00 0.00 0.00 46 1014.7
20260507170752 89 225 3.0 3.0 0.00 0.00 0.00 49 1014.7
20260507170248 89 234 0.0 0.0 0.00 0.00 0.00 47 1014.5
20260507165744 89 239 3.0 5.0 0.00 0.00 0.00 46 1014.7
20260507165240 88 230 1.0 2.0 0.00 0.00 0.00 48 1014.7
20260507164736 88 226 1.0 2.0 0.00 0.00 0.00 49 1014.8
20260507164234 88 103 0.0 0.0 0.00 0.00 0.00 49 1014.8
20260507163731 88 211 2.0 5.0 0.00 0.00 0.00 47 1014.7
20260507163229 88 254 2.0 5.0 0.00 0.00 0.00 48 1015.0
20260507162724 88 256 3.0 5.0 0.00 0.00 0.00 47 1014.8
20260507162220 88 204 1.0 3.0 0.00 0.00 0.00 49 1015.1
20260507161717 88 251 1.0 2.0 0.00 0.00 0.00 47 1014.7
20260507161214 87 223 1.0 2.0 0.00 0.00 0.00 45 1014.9
20260507160709 86 228 4.0 6.0 0.00 0.00 0.00 47 1015.0
20260507160207 86 246 6.0 8.0 0.00 0.00 0.00 52 1015.0
20260507155702 86 280 7.0 9.0 0.00 0.00 0.00 50 1014.9
20260507155159 86 264 6.0 8.0 0.00 0.00 0.00 49 1015.0
20260507154655 87 279 9.0 13.0 0.00 0.00 0.00 49 1015.2
20260507154153 87 254 2.0 3.0 0.00 0.00 0.00 56 1015.4
20260507153649 87 202 1.0 2.0 0.00 0.00 0.00 52 1015.4
20260507153146 85 253 2.0 3.0 0.00 0.00 0.00 52 1015.4
20260507152642 85 284 8.0 9.0 0.00 0.00 0.00 51 1015.5
20260507152138 86 246 6.0 7.0 0.00 0.00 0.00 53 1015.4
20260507151634 85 181 0.0 0.0 0.00 0.00 0.00 50 1015.6
20260507151132 86 249 7.0 10.0 0.00 0.00 0.00 50 1015.6
20260507150628 86 223 0.0 0.0 0.00 0.00 0.00 50 1015.4
20260507150125 85 210 0.0 1.0 0.00 0.00 0.00 50 1015.5
20260507145620 84 222 0.0 0.0 0.00 0.00 0.00 52 1015.6
20260507145118 84 235 1.0 2.0 0.00 0.00 0.00 50 1015.4
20260507144614 84 214 0.0 0.0 0.00 0.00 0.00 55 1015.3
20260507144112 84 235 0.0 0.0 0.00 0.00 0.00 56 1015.3
20260507143608 84 261 5.0 7.0 0.00 0.00 0.00 57 1015.5
20260507143106 84 183 0.0 0.0 0.00 0.00 0.00 56 1015.4
20260507142601 83 165 0.0 0.0 0.00 0.00 0.00 62 1015.4
20260507142058 85 214 0.0 0.0 0.00 0.00 0.00 61 1015.5
20260507141554 83 159 0.0 0.0 0.00 0.00 0.00 66 1015.2
20260507141051 83 158 0.0 0.0 0.00 0.00 0.00 66 1015.3
20260507140548 81 182 2.0 3.0 0.00 0.00 0.00 70 1015.2
20260507140045 81 200 0.0 0.0 0.00 0.00 0.00 69 1015.3
20260507135542 83 191 0.0 0.0 0.00 0.00 0.00 70 1015.4
20260507135040 81 225 0.0 0.0 0.00 0.00 0.00 73 1015.3
20260507134536 81 216 0.0 1.0 0.00 0.00 0.00 74 1015.3
20260507134032 80 197 0.0 0.0 0.00 0.00 0.00 75 1015.4
20260507133528 79 178 0.0 0.0 0.00 0.00 0.00 77 1015.4
20260507133026 79 253 0.0 0.0 0.00 0.00 0.00 78 1015.3
20260507132522 79 153 0.0 0.0 0.00 0.00 0.00 80 1015.3
20260507132019 78 197 0.0 0.0 0.00 0.00 0.00 81 1015.3
20260507131516 77 180 0.0 0.0 0.00 0.00 0.00 82 1015.4
20260507131013 76 170 0.0 0.0 0.00 0.00 0.00 85 1015.0
20260507130510 75 214 0.0 0.0 0.00 0.00 0.00 87 1015.1
20260507130009 73 179 0.0 0.0 0.00 0.00 0.00 90 1015.1
20260507125506 72 202 0.0 0.0 0.00 0.00 0.00 93 1014.9
20260507125003 71 178 0.0 0.0 0.00 0.00 0.00 95 1014.9
20260507124459 71 157 0.0 0.0 0.00 0.00 0.00 96 1014.7
20260507123958 70 198 0.0 0.0 0.00 0.00 0.00 96 1014.7
20260507123455 70 159 0.0 0.0 0.00 0.00 0.00 97 1014.8
20260507122951 70 160 0.0 0.0 0.00 0.00 0.00 97 1014.9
20260507122447 70 152 0.0 0.0 0.00 0.00 0.00 98 1014.6
20260507121943 70 155 0.0 0.0 0.00 0.00 0.00 98 1014.8
20260507121438 69 159 0.0 0.0 0.00 0.00 0.00 98 1014.7
20260507120935 70 145 0.0 0.0 0.00 0.00 0.00 98 1014.6
20260507120431 69 159 0.0 0.0 0.00 0.00 0.00 98 1014.8
20260507115928 69 172 0.0 0.0 0.00 0.00 0.00 98 1014.6
20260507115424 69 153 0.0 0.0 0.00 0.00 0.00 98 1014.7
20260507114920 69 157 0.0 0.0 0.00 0.00 0.00 98 1014.7
20260507114417 69 150 0.0 0.0 0.00 0.00 0.00 98 1014.7
20260507113914 69 157 0.0 0.0 0.00 0.00 0.00 98 1014.5
20260507113411 69 158 0.0 0.0 0.00 0.00 0.00 98 1014.5
20260507112908 69 152 0.0 0.0 0.00 0.00 0.00 98 1014.3
20260507112406 69 165 0.0 0.0 0.00 0.00 0.00 98 1014.5
20260507111904 69 170 0.0 0.0 0.00 0.00 0.00 98 1014.5
20260507111400 69 172 0.0 0.0 0.00 0.00 0.00 98 1014.5
20260507110856 69 176 0.0 0.0 0.00 0.00 0.00 98 1014.0
20260507110352 69 172 0.0 0.0 0.00 0.00 0.00 98 1014.2
20260507105849 69 169 0.0 0.0 0.00 0.00 0.00 98 1014.1
20260507105346 69 176 0.0 0.0 0.00 0.00 0.00 98 1013.8
20260507104843 69 172 0.0 0.0 0.00 0.00 0.00 98 1014.1
20260507104339 69 170 0.0 0.0 0.00 0.00 0.00 98 1013.8
20260507103835 69 170 0.0 0.0 0.00 0.00 0.00 98 1013.8
20260507103332 68 169 0.0 0.0 0.00 0.00 0.00 98 1014.1
20260507102828 68 169 0.0 0.0 0.00 0.00 0.00 98 1014.0
20260507102325 68 161 0.0 0.0 0.00 0.00 0.00 98 1013.8
20260507101821 68 161 0.0 0.0 0.00 0.00 0.00 98 1014.1
20260507101316 68 142 0.0 0.0 0.00 0.00 0.00 98 1014.0
20260507100813 67 161 0.0 0.0 0.00 0.00 0.00 98 1014.0
20260507100311 68 161 0.0 0.0 0.00 0.00 0.00 98 1013.9
20260507095809 67 161 0.0 0.0 0.00 0.00 0.00 98 1013.9
20260507095306 67 161 0.0 0.0 0.00 0.00 0.00 98 1013.8
20260507094803 68 160 0.0 0.0 0.00 0.00 0.00 98 1013.8
20260507094259 68 161 0.0 0.0 0.00 0.00 0.00 98 1013.7
20260507093756 68 161 0.0 0.0 0.00 0.00 0.00 98 1013.8
20260507093255 68 161 0.0 0.0 0.00 0.00 0.00 98 1013.8
20260507092752 68 161 0.0 0.0 0.00 0.00 0.00 98 1013.5
20260507092248 68 161 0.0 0.0 0.00 0.00 0.00 98 1013.5
20260507091745 68 165 0.0 0.0 0.00 0.00 0.00 98 1013.6
20260507091241 68 165 0.0 0.0 0.00 0.00 0.00 98 1013.5